Date String (YYYY-MM-DD hh:mm:ss) UTC,Instrument flags,absolute air pressure of the measurement (hPa),sample flow rate (lpm),inlet stack bypass flow (lpm),air temperature of the measurement (°C),ambient temperature measured by the external sensor (°C),aerosol sample conditioner tube jacket temperature (°C),OPC LED temperature (°C),internal box temperature (°C),relative humidity of the measurement (%),span deviation,mass concentration of particles derived from Lorenz-Mie calculation of OPC scattering (μg/m³),mass concentration of particles derived from Lorenz-Mie calculation of OPC scattering (μg/m³),mass concentration of particles derived from Lorenz-Mie calculation of OPC scattering (μg/m³)
DateTimeUTC,F1_M11,P_M11,Q1_M11,Q2_M11,T1_M11,T2_M11,T3_M11,T4_M11,T5_M11,U1_M11,ZSPAN_M11,X2_M11,X0_M11,X1_M11
2023-11-23 06:00:00,SystemResetWarning,0828.4,4.99,000.00,026.3,025.3,000.0,034.6,027.6,8.5,0000.0,0001.44,0007.52,0000.70
2023-11-23 06:01:00,SystemResetWarning,0828.4,4.99,000.00,026.3,025.3,000.0,034.6,027.6,8.5,0000.0,0001.46,0007.53,0000.70
2023-11-23 06:02:00,SystemResetWarning,0828.4,5.01,000.00,026.3,025.3,000.0,034.6,027.6,8.6,0000.0,0001.55,0007.15,0000.71
2023-11-23 06:03:00,SystemResetWarning,0828.5,5.00,000.00,026.3,025.3,000.0,034.6,027.6,8.6,0000.0,0001.55,0008.98,0000.73
2023-11-23 06:04:00,SystemResetWarning,0828.4,5.01,000.00,026.3,025.3,000.0,034.6,027.5,8.6,0000.0,0001.51,0009.36,0000.74
2023-11-23 06:05:00,SystemResetWarning,0828.4,5.01,000.00,026.3,025.3,000.0,034.6,027.5,8.6,0000.0,0001.54,0009.12,0000.75
2023-11-23 06:06:00,SystemResetWarning,0828.4,5.00,000.00,026.3,025.3,000.0,034.6,027.6,8.7,0000.0,0001.55,0008.77,0000.77
2023-11-23 06:07:00,SystemResetWarning,0828.4,5.00,000.00,026.3,025.3,000.0,034.6,027.6,8.6,0000.0,0001.59,0008.54,0000.79
2023-11-23 06:08:00,SystemResetWarning,0828.4,4.99,000.00,026.3,025.3,000.0,034.6,027.6,8.6,0000.0,0001.58,0009.12,0000.81
2023-11-23 06:09:00,SystemResetWarning,0828.4,4.99,000.00,026.3,025.3,000.0,034.6,027.6,8.6,0000.0,0001.57,0009.96,0000.84
2023-11-23 06:10:00,SystemResetWarning,0828.4,5.00,000.00,026.3,025.3,000.0,034.6,027.6,8.6,0000.0,0001.63,0010.50,0000.86
2023-11-23 06:11:00,SystemResetWarning,0828.4,4.99,000.00,026.3,025.3,000.0,034.6,027.6,8.6,0000.0,0001.67,0010.74,0000.89
2023-11-23 06:12:00,SystemResetWarning,0828.5,5.00,000.00,026.3,025.3,000.0,034.6,027.6,8.6,0000.0,0001.71,0010.93,0000.92
2023-11-23 06:13:00,SystemResetWarning,0828.6,5.01,000.00,026.3,025.3,000.0,034.6,027.6,8.5,0000.0,0001.69,0011.54,0000.96
2023-11-23 06:14:00,SystemResetWarning,0828.6,5.01,000.00,026.3,025.3,000.0,034.6,027.6,8.6,0000.0,0001.80,0010.59,0001.02
2023-11-23 06:15:00,SystemResetWarning,0828.6,5.01,000.00,026.3,025.3,000.0,034.6,027.6,8.5,0000.0,0001.92,0009.96,0001.05
2023-11-23 06:16:00,SystemResetWarning,0828.7,5.00,000.00,026.3,025.3,000.0,034.6,027.6,8.6,0000.0,0001.97,0010.11,0001.09
2023-11-23 06:17:00,SystemResetWarning,0828.7,5.00,000.00,026.3,025.3,000.0,034.6,027.6,8.6,0000.0,0002.02,0010.14,0001.12
2023-11-23 06:18:00,SystemResetWarning,0828.7,5.00,000.00,026.3,025.3,000.0,034.6,027.6,8.6,0000.0,0002.00,0010.02,0001.12
2023-11-23 06:19:00,SystemResetWarning,0828.7,5.00,000.00,026.3,025.3,000.0,034.6,027.6,8.7,0000.0,0002.07,0009.64,0001.13
2023-11-23 06:20:00,SystemResetWarning,0828.7,5.00,000.00,026.3,025.3,000.0,034.6,027.5,8.8,0000.0,0002.12,0008.97,0001.15
2023-11-23 06:21:00,SystemResetWarning,0828.6,4.99,000.00,026.3,025.3,000.0,034.6,027.5,8.8,0000.0,0002.15,0009.54,0001.16
2023-11-23 06:22:00,SystemResetWarning,0828.6,5.00,000.00,026.3,025.3,000.0,034.6,027.5,8.8,0000.0,0002.13,0009.39,0001.16
2023-11-23 06:23:00,SystemResetWarning,0828.6,5.01,000.00,026.3,025.3,000.0,034.6,027.6,8.7,0000.0,0002.14,0009.20,0001.16
2023-11-23 06:24:00,SystemResetWarning,0828.6,5.01,000.00,026.3,025.3,000.0,034.6,027.5,8.8,0000.0,0002.14,0008.40,0001.15
2023-11-23 06:25:00,SystemResetWarning,0828.6,5.00,000.00,026.3,025.3,000.0,034.6,027.5,8.8,0000.0,0002.16,0008.29,0001.15
2023-11-23 06:26:00,SystemResetWarning,0828.7,5.00,000.00,026.3,025.3,000.0,034.6,027.5,8.9,0000.0,0002.22,0008.60,0001.19
2023-11-23 06:27:00,SystemResetWarning,0828.7,5.00,000.00,026.3,025.3,000.0,034.6,027.6,8.9,0000.0,0002.31,0008.61,0001.23
2023-11-23 06:28:00,SystemResetWarning,0828.8,5.00,000.00,026.3,025.3,000.0,034.6,027.5,9.0,0000.0,0002.37,0008.74,0001.24
2023-11-23 06:29:00,SystemResetWarning,0828.8,4.99,000.00,026.3,025.3,000.0,034.6,027.5,8.9,0000.0,0002.42,0008.83,0001.27
2023-11-23 06:30:00,SystemResetWarning,0828.8,4.99,000.00,026.3,025.3,000.0,034.6,027.5,8.8,0000.0,0002.45,0008.90,0001.29
2023-11-23 06:31:00,SystemResetWarning,0828.8,5.00,000.00,026.3,025.3,000.0,034.6,027.5,8.8,0000.0,0002.45,0009.18,0001.31
2023-11-23 06:32:00,SystemResetWarning,0828.8,5.00,000.00,026.3,025.3,000.0,034.6,027.5,8.8,0000.0,0002.48,0009.57,0001.35
2023-11-23 06:33:00,SystemResetWarning,0828.8,5.01,000.00,026.3,025.3,000.0,034.6,027.5,8.8,0000.0,0002.60,0009.73,0001.43
2023-11-23 06:34:00,SystemResetWarning,0828.8,5.01,000.00,026.3,025.3,000.0,034.6,027.5,8.8,0000.0,0002.77,0010.50,0001.56
2023-11-23 06:35:00,SystemResetWarning,0828.8,5.00,000.00,026.3,025.3,000.0,034.6,027.5,8.7,0000.0,0002.91,0010.88,0001.69
2023-11-23 06:36:00,SystemResetWarning,0828.8,5.00,000.00,026.3,025.3,000.0,034.6,027.5,8.8,0000.0,0002.96,0010.74,0001.74
2023-11-23 06:37:00,SystemResetWarning,0828.9,4.99,000.00,026.3,025.3,000.0,034.6,027.5,8.8,0000.0,0002.92,0010.53,0001.73
2023-11-23 06:38:00,SystemResetWarning,0828.9,4.99,000.00,026.3,025.3,000.0,034.6,027.5,8.8,0000.0,0002.90,0010.56,0001.69
2023-11-23 06:39:00,SystemResetWarning,0828.9,5.00,000.00,026.3,025.3,000.0,034.6,027.5,8.8,0000.0,0002.91,0011.13,0001.71
2023-11-23 06:40:00,SystemResetWarning,0829.0,5.01,000.00,026.3,025.3,000.0,034.6,027.5,8.8,0000.0,0003.02,0012.09,0001.75
2023-11-23 06:41:00,SystemResetWarning,0829.0,5.00,000.00,026.3,025.3,000.0,034.6,027.5,8.8,0000.0,0003.00,0012.72,0001.76
2023-11-23 06:42:00,SystemResetWarning,0829.0,5.00,000.00,026.3,025.3,000.0,034.6,027.5,8.8,0000.0,0003.03,0012.83,0001.78
2023-11-23 06:43:00,SystemResetWarning,0829.0,4.99,000.00,026.3,025.3,000.0,034.6,027.5,8.8,0000.0,0003.04,0012.38,0001.80
2023-11-23 06:44:00,SystemResetWarning,0828.9,5.00,000.00,026.3,025.3,000.0,034.6,027.5,8.8,0000.0,0003.04,0012.11,0001.81
2023-11-23 06:45:00,SystemResetWarning,0829.0,5.00,000.00,026.3,025.3,000.0,034.6,027.5,8.8,0000.0,0003.02,0012.17,0001.79
2023-11-23 06:46:00,SystemResetWarning,0828.9,4.99,000.00,026.3,025.3,000.0,034.6,027.5,8.8,0000.0,0002.99,0011.36,0001.76
2023-11-23 06:47:00,SystemResetWarning,0829.0,5.00,000.00,026.3,025.3,000.0,034.6,027.5,8.8,0000.0,0003.00,0011.15,0001.75
2023-11-23 06:48:00,SystemResetWarning,0829.0,5.01,000.00,026.3,025.3,000.0,034.6,027.5,8.8,0000.0,0003.01,0010.79,0001.79
2023-11-23 06:49:00,SystemResetWarning,0828.9,5.01,000.00,026.2,025.3,000.0,034.6,027.5,8.8,0000.0,0003.08,0011.27,0001.86
2023-11-23 06:50:00,SystemResetWarning,0828.9,5.00,000.00,026.2,025.2,000.0,034.6,027.5,8.8,0000.0,0003.17,0011.38,0001.95
2023-11-23 06:51:00,SystemResetWarning,0828.9,5.00,000.00,026.2,025.2,000.0,034.6,027.5,8.8,0000.0,0003.18,0010.32,0001.98
2023-11-23 06:52:00,SystemResetWarning,0828.9,5.00,000.00,026.2,025.3,000.0,034.6,027.5,8.8,0000.0,0003.21,0009.60,0002.03
2023-11-23 06:53:00,SystemResetWarning,0828.9,5.01,000.00,026.2,025.3,000.0,034.6,027.5,8.8,0000.0,0003.24,0009.07,0002.10
2023-11-23 06:54:00,SystemResetWarning,0829.0,5.00,000.00,026.2,025.2,000.0,034.6,027.5,8.8,0000.0,0003.25,0008.46,0002.14
2023-11-23 06:55:00,SystemResetWarning,0828.9,5.00,000.00,026.2,025.2,000.0,034.6,027.4,8.8,0000.0,0003.27,0007.76,0002.20
2023-11-23 06:56:00,SystemResetWarning,0828.9,5.00,000.00,026.2,025.2,000.0,034.6,027.5,8.8,0000.0,0003.28,0007.46,0002.24
2023-11-23 06:57:00,SystemResetWarning,0828.9,4.99,000.00,026.2,025.2,000.0,034.6,027.4,8.8,0000.0,0003.29,0007.70,0002.26
2023-11-23 06:58:00,SystemResetWarning,0828.9,5.01,000.00,026.2,025.2,000.0,034.5,027.5,8.8,0000.0,0003.29,0007.94,0002.26
2023-11-23 06:59:00,SystemResetWarning,0829.0,5.00,000.00,026.2,025.2,000.0,034.5,027.5,8.8,0000.0,0003.32,0008.09,0002.27
